Location: Alt?nova Orta
(36.9295°N, 30.7847°E)
Time: 08:44:26
(UTC+00:00)

Cosmos 1500 Rocket - Pass Details

Date: 17 February 2020
Orbit: 602 x 632 km, 82.5° (Epoch: 09 April)

Event Time Altitude Azimuth Distance (km) Brightness Sun altitude
Rises 03:20:45 0° 351° (N) 2,921 6.9 -17.3°
Reaches altitude 10° 03:23:00 10° 350° (N) 2,006 6.0 -16.8°
Maximum altitude 03:27:26 77° 265° (W) 643 3.4 -15.9°
Drops below altitude 10° 03:31:48 10° 179° (S) 1,973 6.2 -15.0°
Sets 03:34:00 0° 178° (S) 2,868 7.1 -14.6°
